STARLINK-3800, 52379

Orbit data source: Space-Track

STARLINK-3800, 52379 is a payload satellite owned by SpaceX/Seattle (US) in LEO that was launched on Fri, 29 Apr 2022 UTC via an FALCON 9 launch vehicle from the Air Force Eastern Test Range (AFETR). Payload-class satellites include a variety of spacecraft equipped with specific instruments for various scientific and technological missions. These include communications satellites like Starlink; space stations such as the ISS; scientific satellites like the Hubble; Earth observation satellites from companies like Planet Labs, Umbra, and HawkEye 360; GPS; miniature CubeSats for education and research; and military/defense satellites.

Loading next visibility...
Identifier
52379, 2022-045BA
Orbit
LEO
Country
Flag of USUS
Related business
Manufacturer
SpaceX/Seattle
Mission
Operational Commercial Communications
Bus & Motor
STARLINK, Unknown motor
Mass
297 kg wet, ~275 kg dry
Launch date (UTC)
2022-04-29 (4 years ago)
Launch vehicle
FALCON 9
Launch site
Air Force Eastern Test Range (AFETR)
Object type
Payload
Rocket body
Debris
Shape & HBR
Box + 1 Pan, 10.1 m
Radar Cross Section
11.087 m², Large (>1 m²)

Expand to show TLE details & history
Last TLE update: 9 hours ago

TLE from 9 hours ago
0 STARLINK-3800
1 52379U 22045BA  26119.74622139  .00000845  00000-0  71188-4 0  9998
2 52379  53.2175 319.9207 0001237  90.5756 269.5378 15.08838504223635
Epoch: 2026-04-29T17:54Z
TLE epoch observation values (Epoch: 2026-04-29T17:54:33.528Z)
Latitude
Longitude
-166.42176°
Altitude
540.652 km
Speed
7.593 km/s
True Right ascension
21h 19m 40s
True Declination
0° 00' 00"
Sunlit
Object was in daylight at epoch
Visualization orbit readout
Latitude
Unknown
Longitude
Unknown
Altitude
Unknown
Speed
Unknown
Apparent Right ascension
Unknown
Apparent Declination
Unknown
Sunlit
N/A
Visualization observer readout
Local Sidereal Time
10:28:26
Azimuth
Unknown
Elevation
Unknown
Doppler factor
Unknown
Orbital elements
Apogee altitude
540.849 km
Perigee altitude
539.137 km
Semi-major axis
6,918.13 km
Eccentricity
0.00012
Inclination
53.2175°
RAAN
319.9207°
Arg. of periapsis
90.5756°
True anomaly
269.52363°
Mean anomaly
269.5378°
Eccentric anomaly
269.53071°
Mean motion
3.7719 °/min
Orbital period
95.44 mins
BSTAR
0.000071188
Loading maneuver chart data...
Computing Atmospheric mass density...
Loading historical data...
Loading historical data...
Loading historical data...
Loading historical data...
Loading historical data...
Loading historical data...
Loading historical data...

Documentation

Showing up to 5 results
|